Wind_Speed
39 39 40 40 40 41 41 42 42 42 43 44 45 46 47 48 50 51 51 52 53 55 55 54 56 57 56 59 62 61 61 60 62 66 67 67 68 68 68 68 68 68 68 68 70 72 73 73 73 75 77 78 81 83 86 88 90 91 88 83 78 72 64 58 56 57 62 70 75 75 73 72 72 71 69 67 66 67 67 65 62 61 61 61 60 57
40 41 41 40 40 41 41 41 42 43 44 46 47 48 49 50 51 51 51 51 53 55 55 54 56 59 59 60 62 63 64 65 67 69 68 67 68 68 68 67 68 68 69 70 73 74 74 75 76 77 79 80 83 86 89 91 91 88 84 80 75 72 68 62 58 57 60 68 74 75 73 72 72 72 72 69 65 65 67 66 65 64 62 62 62 59
42 42 42 42 42 42 42 43 44 45 46 48 50 51 51 52 52 52 52 51 53 55 56 56 57 61 62 62 65 67 69 69 69 69 68 68 69 70 68 67 68 69 71 73 75 76 77 78 80 80 81 83 85 89 92 93 90 86 82 77 72 69 67 64 61 58 59 65 72 74 72 71 71 71 72 71 65 63 67 67 66 66 63 63 64 61
44 45 45 44 44 44 44 45 46 47 47 48 50 51 51 52 52 53 53 53 54 56 59 59 61 65 64 63 67 70 71 70 69 69 69 71 73 72 69 69 70 72 75 76 77 79 80 82 83 85 86 87 89 92 94 95 91 86 79 73 69 67 66 65 63 60 58 62 69 71 68 67 70 70 70 72 66 60 65 68 67 67 64 63 65 64
46 46 45 45 45 45 46 47 48 48 47 48 50 51 52 52 52 54 54 55 56 58 61 61 63 68 67 65 66 68 71 71 71 72 73 75 74 72 71 72 73 76 78 79 80 82 83 84 85 87 89 91 93 95 97 96 91 86 78 71 66 65 65 66 66 64 60 60 66 70 67 63 65 68 69 69 66 61 61 65 67 68 66 63 65 66
47 46 45 45 45 46 47 48 48 49 49 50 50 51 53 53 53 55 56 58 59 61 63 62 65 69 69 67 65 66 70 72 72 73 74 74 73 71 72 72 73 76 78 79 82 85 86 87 88 91 93 95 98 99 99 96 90 84 77 70 64 61 62 65 68 70 66 62 65 69 68 64 59 62 68 68 67 66 63 62 65 69 69 66 66 68
48 47 46 46 47 48 49 49 50 50 51 52 53 54 55 55 55 56 58 60 61 64 65 64 65 69 68 66 65 67 71 72 72 73 73 72 71 71 71 71 73 76 77 80 83 85 87 89 92 95 98 100 101 101 99 94 87 80 74 69 63 59 60 62 66 71 71 66 66 68 69 67 58 54 63 70 70 69 66 63 64 68 69 67 67 69
50 49 48 49 50 50 51 51 51 52 53 54 55 56 57 56 57 59 60 61 63 66 67 64 64 67 67 67 68 71 71 72 72 71 71 71 72 72 71 72 76 78 80 84 86 88 90 92 95 97 100 102 102 99 96 92 86 79 72 68 63 58 57 60 63 68 72 70 69 70 70 70 64 54 56 66 72 70 66 65 65 67 69 69 69 70
50 49 49 50 51 52 52 53 53 53 54 56 57 58 58 59 60 61 61 61 64 67 67 63 63 66 69 69 71 73 72 72 73 72 72 73 73 72 72 75 78 81 84 87 89 91 92 95 98 100 102 102 99 96 92 88 82 74 67 64 62 58 55 57 61 64 69 71 71 73 73 71 68 59 55 60 69 71 68 66 65 66 68 69 70 72
52 52 52 53 53 54 54 54 54 54 56 57 59 59 60 60 61 62 62 61 64 66 64 63 65 69 72 71 72 74 75 75 74 74 75 76 75 73 74 78 81 83 86 88 89 92 93 96 98 101 101 99 95 92 87 81 75 68 60 57 57 55 52 54 58 61 66 69 70 74 77 73 69 64 58 58 64 71 71 67 66 64 64 68 70 72
55 55 56 56 56 56 56 56 56 56 57 58 60 61 62 62 62 62 61 60 63 66 65 66 70 73 74 74 72 73 76 76 75 75 76 76 75 74 77 80 82 85 88 90 92 93 95 96 97 98 97 94 90 85 78 71 66 61 55 53 53 50 48 50 53 57 62 66 67 71 76 76 71 65 61 59 60 69 74 70 69 66 61 65 72 73
57 58 59 59 59 58 58 59 58 58 59 60 61 63 64 65 64 63 61 62 65 68 68 69 71 73 74 74 75 75 76 76 76 76 76 76 75 74 77 80 82 86 89 92 95 96 97 97 96 95 93 88 82 74 68 63 59 55 52 50 50 48 46 47 50 52 57 63 65 68 73 76 73 67 63 61 59 65 74 74 72 69 62 61 69 74
60 61 61 62 62 61 61 61 60 61 62 62 63 64 65 65 65 65 64 66 68 70 71 70 71 73 72 73 75 77 77 76 76 77 77 76 76 75 77 80 83 87 90 94 96 97 98 97 94 91 86 80 71 63 59 57 54 51 49 49 50 50 48 46 48 50 52 57 62 65 70 74 74 69 64 64 62 61 68 74 73 72 67 63 65 69
62 63 63 64 64 63 63 62 62 62 63 64 65 64 63 63 64 66 67 68 70 72 73 72 72 73 72 72 74 75 76 77 77 78 77 76 76 76 77 80 84 88 91 94 95 96 95 92 87 83 77 67 59 54 52 52 50 48 47 47 48 48 47 46 46 49 50 53 56 60 66 73 75 72 67 66 68 64 63 69 72 72 69 66 67 68
63 63 64 65 65 65 64 63 63 63 63 65 65 64 62 62 63 66 68 70 72 73 74 72 72 74 72 72 74 74 75 77 78 78 76 75 76 77 78 80 85 89 92 94 93 92 91 85 77 71 64 55 49 46 46 46 47 46 45 45 44 43 41 42 44 47 50 52 54 54 60 70 75 74 71 68 71 71 66 65 69 72 70 66 66 69
64 64 64 65 65 64 64 64 64 64 64 66 66 64 63 62 64 66 69 72 74 75 75 72 72 74 74 75 75 73 74 76 77 77 75 74 76 77 77 81 86 90 93 93 90 88 86 80 69 61 55 49 44 42 42 44 46 46 46 45 45 44 42 41 41 42 46 49 52 52 53 64 73 76 75 72 71 74 71 67 66 68 71 69 65 66
65 64 64 64 64 64 64 65 65 64 65 66 66 65 64 64 66 68 71 73 74 76 75 72 72 72 74 78 76 73 75 76 76 75 74 74 76 75 76 81 87 90 91 91 87 83 80 75 66 57 53 50 46 43 42 43 45 46 47 47 47 47 45 44 44 42 42 45 48 50 49 57 70 76 78 76 73 75 75 71 67 64 66 70 68 64
67 66 65 64 63 63 64 65 65 65 65 66 66 66 65 66 68 71 73 74 74 76 75 72 73 71 72 77 76 73 76 76 73 73 72 73 75 74 76 81 86 89 90 88 84 78 73 69 62 56 54 52 49 46 45 44 45 45 46 47 49 49 48 47 47 44 41 43 45 46 46 51 64 74 79 79 76 77 78 74 71 66 62 66 71 65
67 66 65 64 63 64 64 65 65 65 65 67 68 67 66 67 69 71 74 75 74 77 77 73 72 72 72 74 75 75 77 75 73 72 71 73 75 75 77 82 87 90 89 87 81 74 68 64 58 55 54 52 50 49 48 46 45 45 45 46 47 48 48 46 46 46 42 42 44 43 43 47 58 70 79 83 79 77 80 76 72 69 62 62 69 68
67 67 66 65 64 64 64 64 65 65 66 68 69 68 67 67 69 71 74 75 74 76 78 76 74 73 72 71 73 76 76 75 73 73 73 75 76 76 79 84 88 90 89 86 79 71 65 61 58 55 53 52 50 49 49 49 46 45 45 46 45 45 46 46 45 44 41 42 45 43 40 43 52 64 76 84 82 77 80 79 74 70 66 64 67 68
67 67 67 67 66 65 65 64 64 65 67 68 69 69 68 68 70 73 73 74 75 76 78 78 77 75 72 70 73 75 75 74 74 74 76 77 76 77 80 84 88 90 89 85 78 70 63 59 58 57 53 52 50 48 50 51 51 48 46 47 47 46 46 46 44 43 40 40 44 44 39 40 47 58 70 82 85 80 79 81 77 71 70 69 69 69
67 66 67 68 67 66 66 64 63 64 65 67 69 70 69 69 71 74 75 74 75 78 78 78 80 76 70 70 72 73 73 72 72 75 78 77 76 77 81 85 88 90 90 85 77 69 63 59 58 58 55 53 51 50 50 51 52 52 50 48 49 48 47 46 44 43 40 38 43 45 40 38 43 52 64 77 86 84 80 81 79 73 71 73 74 71
66 67 67 68 67 67 66 64 63 64 65 66 68 69 70 70 72 75 77 75 75 78 77 78 81 76 71 72 72 71 70 68 70 75 77 76 76 78 82 85 88 89 88 85 77 67 61 59 58 59 59 57 54 53 52 51 51 52 52 51 50 49 48 47 45 42 40 37 40 45 42 37 39 48 59 71 83 88 84 80 79 75 71 74 77 75
67 68 68 67 68 67 65 63 63 64 65 66 68 70 71 72 74 77 78 77 76 76 75 78 79 75 73 74 71 69 68 67 70 75 76 76 77 80 83 86 88 89 87 84 77 66 58 56 57 58 60 59 56 53 53 52 51 50 51 52 51 50 49 47 44 42 39 37 38 43 44 39 38 44 55 66 78 87 87 80 78 77 73 74 78 79
68 69 69 68 68 67 64 63 64 64 66 66 67 69 71 73 76 78 78 78 76 74 74 77 77 74 73 72 70 69 69 68 71 75 76 77 80 82 85 86 88 89 87 83 77 68 58 54 55 57 59 60 60 57 55 53 51 50 51 52 51 49 48 46 44 41 38 36 37 41 42 40 38 42 51 64 75 83 86 82 78 77 74 73 77 80
69 70 69 68 67 66 63 63 64 65 66 66 66 68 71 73 76 79 78 77 75 74 74 74 75 75 71 69 68 68 68 69 72 74 74 77 81 83 85 87 88 88 87 83 79 72 64 57 56 57 58 61 63 63 59 54 51 50 50 51 50 47 46 45 45 43 40 36 37 41 42 39 38 41 48 61 73 80 84 82 78 79 76 73 76 80
70 70 69 68 67 65 63 62 62 62 64 65 65 68 71 73 77 79 78 74 72 74 73 71 74 75 71 67 67 67 68 71 73 74 74 77 82 84 85 87 88 88 86 82 79 75 69 62 58 58 60 63 65 65 60 54 51 50 50 51 51 48 45 45 44 44 44 41 38 39 42 40 38 42 47 57 69 77 82 81 78 79 78 74 75 78
69 69 69 68 65 63 61 60 60 61 62 63 65 67 69 73 76 78 77 73 71 74 74 71 72 73 69 67 67 68 70 73 75 74 74 79 83 85 85 87 88 88 85 82 78 74 70 65 59 57 60 64 66 65 61 56 53 51 51 51 51 50 48 47 45 43 44 46 43 40 42 42 38 41 47 54 64 73 79 81 79 79 80 77 75 74
69 69 68 66 63 61 60 58 58 60 61 62 64 66 68 71 74 75 74 72 71 74 74 72 71 69 67 67 66 67 71 75 76 75 75 79 84 84 85 88 88 88 85 81 77 73 69 66 61 59 62 66 69 68 62 57 54 52 52 52 51 51 51 51 50 48 47 49 48 43 41 42 40 41 46 51 60 68 74 79 80 80 81 80 76 71
68 67 66 64 60 58 58 58 58 59 61 62 64 66 67 69 71 71 71 70 71 72 72 72 71 67 65 65 65 66 71 75 76 76 76 80 83 84 86 88 89 88 85 80 76 72 69 67 66 65 69 72 74 72 67 61 56 53 53 53 53 53 53 53 53 53 53 52 50 46 43 42 41 41 47 51 56 64 71 76 80 82 83 83 78 70
66 65 63 60 58 57 57 57 57 58 61 63 64 65 67 68 68 68 68 70 70 70 70 71 70 66 63 63 64 66 71 75 74 75 78 81 83 84 86 88 88 88 85 80 76 71 70 71 70 69 73 77 78 76 72 67 59 53 52 53 55 57 58 57 56 56 57 56 50 46 44 42 42 42 48 52 55 62 69 73 78 83 84 84 81 75
64 62 59 57 58 58 58 57 56 58 62 63 63 64 65 65 66 66 67 70 70 69 69 69 66 63 61 62 62 65 70 72 72 75 80 82 82 84 86 88 88 87 84 80 76 73 73 75 76 76 78 79 77 74 72 70 64 56 52 53 56 58 59 59 58 57 60 58 48 44 44 42 41 43 48 53 55 61 68 72 77 81 83 83 82 79
61 59 57 58 60 60 58 57 58 60 64 63 62 62 63 63 65 65 66 68 68 67 68 67 63 61 61 60 61 64 68 70 70 73 78 82 83 83 85 87 87 84 82 79 77 77 77 79 84 85 83 80 78 76 74 71 67 60 56 55 56 58 58 59 59 58 58 54 46 42 42 41 40 44 50 55 56 61 67 72 76 79 81 82 82 81
59 59 59 60 61 61 59 59 60 62 63 63 61 62 62 63 63 64 64 65 65 66 67 65 62 61 60 60 62 66 68 68 68 70 76 81 83 83 84 85 85 83 80 78 77 78 79 81 86 86 82 80 81 79 74 69 65 61 58 57 57 57 55 54 54 54 52 47 42 40 41 39 39 44 51 57 57 61 67 70 75 78 79 80 82 81
59 60 61 61 61 61 60 61 62 63 62 62 63 63 63 63 62 60 61 62 63 65 65 63 60 59 60 61 64 68 68 67 67 68 73 77 81 83 84 86 86 82 77 75 75 78 79 81 85 85 80 80 82 80 73 67 62 57 55 55 55 53 48 46 47 47 45 40 38 39 39 37 38 44 51 58 58 61 67 70 75 77 78 80 80 78
60 61 61 61 61 61 61 61 62 63 62 62 63 61 61 62 61 61 60 60 61 63 63 60 58 58 59 61 64 67 67 65 65 66 70 74 78 82 84 86 86 83 77 73 74 78 82 84 85 84 82 80 82 82 75 65 58 51 49 50 50 47 45 45 44 42 39 35 35 37 37 36 38 43 51 58 58 61 66 70 74 76 76 78 79 76
61 61 61 61 61 61 61 60 60 62 63 62 61 59 59 61 62 62 62 59 60 62 61 59 58 58 58 60 63 66 66 64 64 65 68 72 77 81 83 85 85 82 77 73 73 76 82 85 83 82 82 79 80 82 75 63 54 48 45 45 44 43 44 44 39 35 32 31 33 34 34 35 37 42 51 56 56 60 66 69 73 75 74 76 77 74
61 61 61 62 61 61 61 59 59 60 60 60 60 59 59 60 62 62 62 60 60 61 59 58 57 57 57 60 63 65 66 66 65 66 70 73 76 80 82 82 82 80 75 72 71 73 79 83 81 78 79 78 76 77 71 60 52 47 43 42 41 40 39 35 30 27 27 29 30 31 32 33 35 41 51 55 54 59 66 68 72 73 72 74 77 75
61 62 62 62 61 59 59 59 57 57 57 58 59 60 60 61 62 62 62 60 59 58 58 57 56 56 57 60 63 65 67 68 68 69 71 75 77 80 81 82 82 79 74 70 71 73 77 82 80 76 76 75 72 71 66 57 51 47 43 41 39 36 31 26 22 22 23 25 26 27 29 31 33 41 50 54 54 59 64 67 70 71 70 72 76 76
63 62 62 61 59 58 58 57 55 55 55 55 57 60 61 61 61 62 62 61 58 56 56 55 55 55 57 60 63 64 66 70 71 71 73 76 78 79 81 82 83 80 75 70 70 72 75 80 79 74 73 74 70 67 62 55 49 46 44 42 38 31 26 21 18 19 20 21 22 23 26 27 31 41 51 54 54 58 62 66 68 69 69 72 76 78
63 61 60 59 57 56 57 57 55 53 51 53 57 59 60 61 62 62 61 60 58 56 54 54 55 55 57 60 63 64 65 68 71 72 73 75 78 78 79 80 81 79 75 70 70 72 75 77 77 73 72 72 68 64 61 55 47 43 43 42 35 28 24 20 17 17 18 18 18 20 22 24 30 41 50 52 52 55 60 64 65 66 68 72 74 77
61 60 59 56 55 55 55 57 57 52 48 51 56 58 59 61 62 61 61 60 58 55 53 53 54 55 56 60 62 63 64 66 68 70 72 74 77 78 78 78 79 77 72 67 67 70 73 74 72 69 68 67 64 63 61 56 48 42 39 39 34 27 24 21 18 17 16 15 15 17 19 21 29 41 48 49 51 53 57 61 63 63 66 70 72 74
58 57 56 54 54 54 53 54 56 53 49 51 55 57 59 62 61 61 62 61 58 55 54 53 53 55 57 59 61 62 64 65 66 68 70 73 75 77 77 78 78 77 72 65 63 66 69 70 67 65 66 63 59 60 60 56 50 42 36 35 32 27 24 22 19 18 15 13 14 16 17 20 30 41 45 47 49 52 55 59 60 61 62 65 68 70
55 54 54 53 52 52 52 52 53 52 51 51 54 57 60 61 61 62 62 59 56 54 53 52 54 55 57 59 60 61 63 64 66 67 69 71 73 75 76 77 77 76 71 64 62 64 67 66 61 60 64 62 56 56 58 56 51 42 33 30 29 25 22 21 19 17 13 11 13 16 18 21 30 40 43 44 46 50 55 58 59 60 60 61 63 64
54 53 53 52 50 50 51 51 50 50 52 53 55 57 60 61 62 61 60 56 54 52 52 53 54 56 57 59 60 61 63 64 65 67 68 70 72 74 75 75 76 75 69 62 59 61 64 63 59 57 61 60 54 53 55 55 52 43 31 27 26 23 21 19 17 13 9 9 13 16 18 21 28 37 41 42 44 48 54 58 58 58 58 58 60 61
53 53 53 50 49 50 49 47 47 50 53 56 57 58 59 60 60 58 56 53 52 51 52 53 55 56 57 59 60 61 63 64 65 66 68 70 71 73 74 75 74 74 68 60 57 58 60 60 57 55 57 57 52 50 51 52 50 43 31 26 24 22 19 17 13 7 2 8 12 16 18 20 25 33 40 42 42 45 53 58 58 56 54 54 56 59
52 53 52 49 48 49 48 46 47 50 54 57 58 58 58 58 56 54 52 51 51 52 53 54 55 56 57 59 60 61 63 64 65 66 67 69 70 72 73 74 74 72 67 58 54 55 57 57 53 51 53 53 49 46 46 48 47 40 30 24 22 19 16 12 9 5 3 6 9 12 15 18 22 31 38 41 41 44 51 56 56 53 51 50 52 55
51 51 51 49 48 49 49 48 48 51 54 56 57 57 57 55 53 51 51 51 51 53 54 54 55 56 57 59 60 61 63 64 65 66 67 69 70 71 73 73 73 71 66 57 51 51 54 53 51 51 52 53 50 45 44 46 46 38 28 21 18 15 12 8 4 2 2 3 6 9 13 17 21 27 34 39 41 43 49 54 54 51 50 48 49 50
50 48 49 49 49 49 49 49 50 51 53 55 55 55 54 53 51 51 51 51 52 53 54 54 55 56 58 59 60 61 63 64 65 66 67 69 70 71 72 73 72 70 64 55 48 48 50 50 48 49 51 53 52 49 45 44 42 35 27 21 16 12 10 7 4 5 6 7 7 8 12 20 24 27 31 37 41 43 46 50 51 50 48 47 46 46
48 46 48 50 49 48 49 50 52 53 54 54 55 55 53 51 50 50 50 51 52 52 53 54 55 56 58 59 61 62 63 64 65 66 67 69 70 71 71 72 72 69 64 55 46 44 45 45 45 46 48 50 52 50 47 43 38 32 27 23 18 14 11 9 9 10 10 11 9 7 13 22 28 29 32 36 40 43 45 47 49 48 45 44 44 44
46 45 48 50 49 47 49 51 53 55 55 55 53 52 50 48 48 48 49 50 51 52 53 54 55 56 58 60 61 62 63 64 65 66 67 68 69 70 70 72 71 69 64 55 45 42 42 42 42 43 45 48 48 49 49 46 40 35 29 23 19 18 14 12 12 12 13 13 9 7 13 23 29 32 35 37 40 43 44 44 44 43 42 42 44 44
Wind_Direction
318 318 318 318 317 315 313 312 311 312 311 311 310 309 310 310 312 314 315 316 316 317 318 317 316 316 317 316 317 318 319 322 322 320 320 321 319 317 315 314 313 312 312 312 313 315 314 313 312 310 309 307 304 302 298 295 292 291 290 290 289 284 276 269 265 260 259 257 254 253 252 250 248 246 247 247 245 244 244 241 239 241 243 243 242 239
319 318 319 319 318 315 314 314 314 315 314 313 311 310 311 311 312 314 316 317 316 316 316 314 313 313 314 316 317 318 320 322 321 321 320 319 318 316 315 314 313 313 313 314 316 316 315 314 313 311 308 305 302 299 296 294 293 293 293 293 290 286 280 273 268 260 255 254 253 251 250 249 247 246 245 246 245 244 243 241 238 238 239 240 240 238
315 315 316 317 317 316 315 315 315 316 315 313 311 311 312 312 313 314 315 317 316 315 314 312 311 311 313 316 317 318 320 321 322 321 320 318 318 316 314 314 313 314 315 317 318 318 317 316 314 311 308 305 301 297 294 293 293 294 293 291 288 285 280 274 269 260 252 250 250 249 250 249 247 245 244 245 245 243 242 240 237 236 236 237 238 237
313 313 313 314 314 314 314 314 315 315 315 314 313 314 315 315 316 316 316 316 316 315 313 312 312 311 313 317 318 319 320 321 322 322 320 320 318 316 315 314 315 317 319 319 319 319 318 316 314 312 310 306 303 298 295 293 294 294 293 288 283 280 277 273 268 260 252 249 247 246 247 248 248 246 243 242 243 242 242 239 236 235 235 236 238 237
313 312 312 312 311 311 312 313 315 316 317 317 317 317 317 318 318 318 316 316 316 314 311 312 312 313 317 320 321 321 320 322 324 323 322 320 318 316 316 316 318 320 321 319 318 317 317 316 313 311 309 306 303 299 297 296 296 296 293 287 280 275 271 268 265 262 255 249 246 244 243 244 246 246 243 241 239 238 239 238 234 233 233 233 237 237
313 312 311 310 310 310 312 315 316 318 319 318 318 318 318 318 319 318 317 316 315 313 311 314 314 314 319 323 322 321 321 324 324 323 321 318 316 316 315 316 319 319 318 317 317 317 316 314 312 310 308 306 303 301 300 300 300 298 295 289 280 273 267 261 258 259 257 252 246 242 241 240 242 244 242 239 237 234 234 236 233 231 231 230 232 235
315 313 310 309 310 312 314 317 318 319 319 318 318 318 317 318 318 317 317 316 316 314 314 317 317 316 319 321 321 322 323 324 322 320 318 315 315 315 315 316 318 317 316 317 317 316 315 314 312 310 308 306 305 304 304 304 303 301 297 291 283 275 267 259 253 250 251 251 247 242 240 239 238 241 240 236 235 234 231 234 234 231 230 229 229 233
317 315 312 311 311 313 316 318 319 320 318 318 319 318 317 318 318 318 317 317 316 315 315 318 318 317 319 321 322 322 323 322 320 318 316 315 316 316 317 318 318 317 317 318 318 317 315 314 312 310 308 307 307 307 307 307 305 302 298 293 287 279 269 261 254 247 244 245 246 244 241 239 237 238 240 234 232 233 230 230 234 232 229 228 228 230
318 318 317 316 315 317 318 319 320 320 318 318 318 317 318 318 318 316 316 317 316 315 316 317 316 317 320 322 322 322 323 322 319 318 317 318 318 317 319 320 319 319 319 319 318 316 314 312 311 310 310 310 310 309 309 308 305 302 298 293 288 283 274 263 256 249 244 242 242 243 242 239 236 236 240 234 228 229 228 227 231 233 230 228 227 228
318 319 320 320 320 320 320 319 320 319 319 318 317 317 317 316 316 315 316 318 316 315 316 316 317 319 320 322 322 322 323 322 319 318 319 320 320 320 321 321 321 321 320 319 317 315 313 312 312 312 311 311 311 310 310 309 305 302 298 293 289 286 279 269 259 252 248 244 240 240 240 239 235 233 238 235 227 225 225 223 227 231 230 229 227 227
319 320 321 322 322 321 320 319 319 319 318 317 316 316 316 315 315 316 317 317 315 314 315 317 320 321 321 322 321 321 322 321 319 318 319 320 320 321 322 323 323 322 320 319 317 316 314 313 313 312 311 311 312 312 312 310 307 304 301 296 294 292 285 276 268 258 252 248 243 239 239 238 234 231 233 234 227 223 223 221 223 227 226 226 226 227
319 319 321 321 321 320 319 318 318 318 317 316 316 315 315 315 315 315 316 316 314 314 316 319 321 321 322 322 321 322 322 320 319 318 320 321 321 322 323 323 323 322 322 320 318 317 315 314 313 313 313 314 315 315 314 313 311 308 306 304 303 300 293 285 278 270 261 254 248 241 239 238 235 230 230 232 226 221 222 221 221 223 224 223 224 226
317 318 319 319 318 318 318 317 317 317 316 315 315 315 315 315 314 314 315 315 314 315 316 319 320 320 321 321 321 323 322 320 319 319 321 322 321 322 322 322 323 324 323 321 319 317 316 314 314 314 315 317 318 318 316 314 313 312 312 311 309 306 301 292 285 280 273 264 256 246 240 238 235 229 227 229 226 220 220 221 221 221 223 224 226 227
316 316 317 317 317 316 316 316 316 315 314 313 314 314 314 314 313 313 315 314 313 314 317 320 320 319 319 319 320 321 320 319 319 320 321 321 320 321 321 322 324 325 323 321 319 318 317 315 315 316 318 318 318 318 317 315 314 314 314 312 311 310 305 297 290 285 281 274 266 255 243 239 236 228 223 226 227 223 220 219 220 220 220 222 225 227
315 315 316 316 315 315 315 315 315 314 313 313 313 313 313 313 313 314 314 313 313 314 316 319 318 317 318 317 318 320 318 317 318 319 320 319 319 320 321 322 324 325 324 322 321 319 316 315 317 319 319 318 317 316 315 313 310 310 311 310 311 312 308 300 294 290 286 281 275 265 248 239 236 229 222 223 226 226 224 219 218 220 220 219 221 224
314 314 315 314 313 314 315 314 314 313 313 312 312 312 312 312 312 313 313 312 312 313 315 318 318 317 316 315 317 318 317 316 317 318 318 316 318 320 320 322 324 325 324 323 322 320 316 315 318 321 319 316 314 312 311 309 307 307 308 309 309 310 308 303 298 294 291 288 282 274 256 240 237 232 223 221 224 226 226 223 218 218 219 219 220 220
313 314 313 312 312 313 313 313 313 313 312 311 311 311 311 312 312 312 312 312 312 312 315 318 317 316 315 314 316 317 315 315 316 317 316 314 316 318 318 321 324 324 325 324 323 320 316 314 317 321 319 316 314 311 308 306 305 305 305 307 307 307 306 303 299 296 293 291 288 281 264 243 236 233 226 220 222 224 224 224 221 218 218 218 217 218
313 312 312 311 311 311 312 311 311 311 311 310 310 310 311 312 312 312 311 311 311 311 314 317 316 315 314 313 315 315 313 314 315 314 313 313 314 315 318 321 323 324 325 325 322 319 315 312 315 319 318 316 315 312 309 305 303 303 303 304 305 305 305 303 299 296 292 289 289 285 271 248 234 233 228 220 220 222 223 224 224 220 218 217 215 214
311 311 310 310 310 310 310 309 309 310 310 310 309 310 311 311 312 312 310 309 310 310 312 315 315 314 315 314 314 313 312 313 313 312 312 313 314 316 319 322 324 324 325 325 323 319 315 313 315 318 316 314 313 313 311 307 304 303 303 305 306 306 307 305 301 298 292 286 287 286 277 256 236 230 228 221 218 220 221 222 223 221 218 217 214 211
310 309 308 308 309 310 309 308 308 309 309 309 309 309 310 310 310 310 309 309 309 309 310 313 314 314 316 315 312 311 312 313 313 313 314 315 317 319 321 323 324 325 326 325 323 319 315 314 316 316 315 313 312 312 311 310 307 304 302 303 307 309 309 308 305 302 295 286 285 285 279 264 242 230 226 221 218 219 219 220 221 221 218 217 213 209
307 307 306 307 308 309 309 307 307 308 309 309 309 308 309 310 309 308 307 308 308 308 309 310 312 315 317 315 312 311 312 313 313 314 315 317 320 321 322 323 325 326 326 326 325 321 316 314 314 315 315 312 310 310 310 311 309 306 303 301 303 307 309 308 306 304 298 286 284 285 280 269 250 233 225 221 218 217 218 218 219 219 218 217 213 209
306 305 305 306 307 309 308 307 306 307 308 307 307 308 308 308 308 306 306 308 308 308 309 309 310 316 317 313 311 312 312 314 315 315 317 318 321 322 323 324 326 326 327 326 325 322 316 313 313 315 316 314 310 308 308 309 308 306 305 303 302 303 306 306 304 303 301 289 283 284 281 271 257 239 227 221 218 217 217 217 218 217 217 217 213 210
304 304 305 305 307 308 307 306 306 306 306 306 306 307 307 306 306 304 305 308 308 308 309 307 309 315 315 311 311 312 312 314 315 315 317 319 321 322 324 326 327 327 327 326 325 322 316 313 313 315 316 316 313 310 308 308 307 305 305 303 302 302 303 305 304 302 302 293 285 285 282 273 260 245 231 222 218 217 216 216 216 215 215 216 214 211
303 303 303 304 305 306 305 305 305 306 305 305 305 306 306 306 305 304 305 306 307 308 307 305 309 313 313 312 313 313 313 315 316 316 318 320 322 324 325 327 328 327 327 325 324 322 317 313 313 313 313 314 315 314 311 309 306 304 303 301 301 301 302 302 303 303 303 297 289 286 284 276 261 247 235 224 218 217 217 216 215 212 212 214 214 212
301 301 302 303 304 303 303 304 304 305 304 304 305 305 305 306 305 303 304 304 305 305 304 304 308 310 311 312 313 312 313 316 317 318 320 321 323 324 326 328 328 327 327 324 322 322 318 314 313 312 312 314 317 317 315 311 307 304 302 301 299 298 298 298 300 303 304 301 291 287 287 279 262 248 237 226 219 218 218 217 214 211 209 211 213 212
299 299 300 302 302 301 302 303 304 304 303 304 305 305 304 304 303 301 301 302 303 303 303 306 308 308 309 311 311 311 313 316 318 319 321 322 323 324 326 328 328 328 327 325 323 322 321 319 316 313 312 315 318 319 316 312 309 304 302 300 298 296 294 294 297 300 303 302 292 286 288 282 264 248 237 228 221 218 219 218 214 210 208 209 210 211
297 298 299 301 300 300 301 302 303 303 302 303 304 303 303 302 301 300 300 302 302 301 304 307 307 307 310 311 311 312 313 316 318 320 322 322 323 325 327 328 328 329 328 325 323 323 322 321 317 312 313 317 321 321 317 312 309 305 301 299 296 294 292 291 292 294 297 299 293 286 285 284 267 247 236 228 222 218 218 218 214 210 209 208 207 209
296 297 299 299 299 300 301 302 302 301 302 302 302 302 301 300 299 299 300 301 301 301 304 307 306 307 311 312 312 313 315 317 319 321 323 322 323 326 328 328 329 330 329 326 324 324 323 322 318 313 316 321 323 323 319 314 309 305 300 296 292 290 289 290 289 289 292 295 292 284 281 282 271 248 235 228 222 218 216 217 214 209 208 208 207 207
296 298 299 298 298 299 301 302 302 301 301 301 300 300 298 297 298 299 299 299 300 302 305 307 306 308 311 311 312 314 316 318 320 322 323 323 324 327 327 328 330 330 329 326 325 325 325 325 323 321 322 324 325 324 321 316 311 305 299 292 288 285 284 285 286 286 289 291 288 280 276 278 273 251 234 227 221 217 215 215 214 209 207 208 207 209
296 297 297 296 297 299 301 302 302 301 300 300 300 299 297 297 298 298 298 299 300 303 306 306 307 309 310 310 313 315 318 320 321 321 322 323 325 328 328 329 331 330 328 327 326 327 328 329 329 328 329 328 325 323 321 317 313 307 301 292 285 282 280 281 283 283 286 288 284 275 271 273 272 254 233 224 220 215 213 213 213 210 207 207 208 212
295 295 295 296 297 299 301 301 301 301 301 302 302 300 298 298 298 297 298 299 301 304 306 306 307 308 309 311 314 317 320 321 320 320 322 325 327 329 329 330 331 330 328 327 326 328 330 331 331 331 330 328 326 323 321 319 315 309 304 297 287 282 280 280 282 281 284 286 280 268 265 268 269 255 233 222 217 213 210 211 211 210 210 209 210 213
294 293 294 295 297 299 300 300 301 302 302 303 303 299 298 299 299 299 300 301 302 304 305 305 305 307 309 312 315 317 319 320 320 322 324 325 328 329 329 331 332 330 328 327 327 329 332 334 332 331 331 330 328 327 325 323 319 312 306 301 293 286 282 280 280 280 282 283 275 260 258 262 265 254 233 219 215 210 207 208 208 209 210 210 210 213
292 293 295 296 296 298 299 300 302 303 304 306 304 299 299 300 299 300 302 302 302 304 305 305 306 308 310 312 314 316 318 320 322 324 325 326 328 330 330 332 332 330 328 328 328 329 332 335 334 332 333 332 330 327 325 322 320 314 308 304 298 292 286 281 281 280 279 278 269 253 250 256 261 252 231 217 212 208 204 205 206 207 209 209 210 213
291 292 294 296 297 299 301 303 303 304 307 307 301 298 300 300 299 301 303 302 302 304 306 307 309 310 311 312 314 316 319 322 324 326 326 327 328 329 331 332 332 331 330 329 329 329 331 335 334 332 333 335 332 329 324 320 316 311 307 305 303 299 291 283 281 279 275 271 260 247 246 250 256 249 229 214 210 206 203 203 204 205 207 207 209 212
291 293 295 297 298 300 303 304 304 306 308 304 299 299 301 300 299 301 302 302 303 304 307 308 309 310 311 313 315 317 320 324 325 326 327 327 328 329 331 333 333 331 330 329 328 328 331 334 334 332 333 336 338 336 330 323 317 309 304 304 305 304 296 287 283 279 273 265 251 241 243 246 250 246 227 213 208 205 202 201 201 202 205 206 207 209
292 295 298 299 300 301 303 304 305 306 306 302 299 299 300 299 300 302 303 304 304 305 307 308 308 308 310 312 315 317 320 323 325 326 327 327 328 330 332 334 333 331 330 329 329 329 330 333 334 333 333 336 340 341 337 331 324 316 310 308 307 305 298 290 286 280 269 256 240 237 240 242 244 242 225 212 207 204 201 200 199 200 202 204 205 205
295 298 299 299 301 302 303 304 304 304 304 302 299 298 300 301 301 302 305 306 306 307 308 308 307 308 309 311 315 317 319 322 324 324 326 327 329 330 333 334 333 331 329 329 329 329 331 333 334 334 334 335 339 342 341 338 334 328 322 318 312 306 300 294 288 277 261 244 233 234 237 238 241 237 222 210 206 203 201 199 198 199 201 203 204 202
298 300 299 299 301 303 301 302 303 303 303 301 297 298 302 302 302 303 306 309 309 309 309 308 308 308 308 311 315 317 318 320 323 324 326 328 330 331 333 334 333 331 329 328 329 330 330 332 334 335 335 335 338 342 343 341 339 335 330 325 320 313 306 298 286 269 251 236 230 233 235 235 237 231 216 207 204 202 200 200 199 199 200 202 202 201
300 301 299 299 302 301 299 300 303 304 303 300 297 299 302 302 303 306 308 310 310 308 308 308 307 307 308 312 315 317 318 320 322 324 326 328 330 331 333 335 334 332 330 329 330 331 331 332 334 336 336 336 338 342 343 341 339 337 335 333 331 324 315 304 285 264 247 235 231 233 232 232 232 223 211 204 202 201 199 199 198 199 201 202 202 201
301 301 299 300 301 299 298 300 302 303 303 300 298 300 302 304 306 308 309 310 309 307 308 307 306 306 309 312 316 318 319 320 322 325 327 328 330 332 334 336 335 333 331 330 331 332 332 333 334 336 337 337 338 342 344 341 337 338 338 339 337 331 325 314 291 268 251 241 235 232 229 229 226 215 206 201 200 198 197 197 197 199 202 202 201 201
301 300 299 300 300 298 298 299 300 303 303 299 297 300 303 305 308 309 308 308 307 307 307 306 305 307 309 313 316 318 319 320 321 324 326 327 329 331 334 336 335 333 331 331 332 333 334 334 335 337 338 338 339 342 345 342 338 338 339 340 339 335 331 322 302 280 265 251 241 232 228 225 218 208 202 199 198 196 194 195 196 199 202 202 202 201
300 298 299 300 299 297 297 298 299 302 302 299 299 302 304 306 308 308 306 306 305 306 306 305 305 306 309 313 316 316 318 319 321 323 325 326 328 331 334 336 335 333 331 330 331 333 333 334 336 337 338 339 339 341 344 343 340 338 338 339 340 336 332 325 311 295 281 262 245 233 223 217 208 202 200 199 197 194 193 193 195 199 202 202 203 203
298 298 298 298 296 296 297 298 299 299 301 300 300 302 304 306 307 306 304 303 304 305 305 304 304 305 308 312 314 315 316 319 321 322 324 326 328 330 333 335 335 333 331 330 331 332 333 334 336 337 339 339 339 340 341 342 340 336 334 336 338 336 331 324 315 304 290 266 243 226 212 205 199 196 197 196 193 192 191 191 194 199 201 201 203 204
298 297 296 295 295 296 298 298 297 298 300 301 301 302 304 305 305 303 301 302 303 304 304 303 303 304 308 311 313 314 316 319 321 323 324 326 328 330 332 334 334 333 331 330 331 332 333 334 336 339 339 339 340 339 338 341 341 336 330 330 333 332 328 322 316 309 291 257 230 211 198 195 194 193 194 193 190 190 189 189 194 200 201 201 202 203
297 295 293 294 296 295 296 298 297 298 300 301 302 303 304 303 301 300 300 302 303 303 302 301 301 303 307 311 313 314 316 319 322 323 325 326 327 329 331 333 333 333 331 330 330 332 333 334 338 341 340 339 340 338 336 341 343 337 329 327 328 328 329 327 326 319 287 231 205 194 187 189 192 193 193 190 188 188 189 189 194 199 201 201 202 203
296 293 292 294 295 294 295 298 298 298 300 301 302 303 301 300 299 299 300 302 302 301 300 299 301 303 307 311 313 314 317 320 322 324 325 326 327 329 331 332 333 332 331 329 330 331 333 334 339 342 340 339 339 337 336 341 343 338 332 330 330 332 338 343 347 345 251 189 180 181 186 193 196 196 195 191 188 187 189 190 193 197 200 202 203 205
294 291 292 294 294 293 296 297 297 299 301 300 300 300 299 298 298 298 300 302 301 299 298 299 301 305 308 311 313 315 317 320 322 324 325 326 327 328 330 331 332 332 330 329 329 330 332 333 338 342 342 341 340 337 335 338 341 339 335 335 338 342 349 359 17 45 116 162 172 183 197 208 206 199 196 194 191 188 188 190 192 195 198 201 203 206
291 290 291 292 292 293 296 297 297 300 301 299 298 298 297 297 298 299 300 300 299 298 298 300 302 305 309 311 313 316 318 320 322 324 325 326 327 328 329 330 331 331 330 328 327 329 331 333 337 343 344 343 342 340 336 335 338 337 334 334 338 340 344 355 20 71 131 184 199 207 215 216 207 198 195 194 190 187 187 187 190 194 198 201 203 206
288 289 289 289 292 295 296 296 297 301 301 298 296 296 296 297 299 300 300 299 298 297 299 301 304 307 310 312 314 316 319 321 323 324 325 325 326 327 328 329 330 330 330 328 325 327 330 333 337 342 343 343 344 344 340 338 338 336 330 327 328 321 316 312 278 238 227 224 227 231 223 210 200 195 194 190 186 184 185 186 189 194 198 201 203 204
286 288 287 288 293 296 295 295 298 301 301 297 295 296 298 298 299 299 298 297 297 298 300 302 306 309 311 313 315 317 319 321 323 324 324 325 325 326 327 328 329 329 329 327 323 324 330 334 338 340 342 343 344 345 344 345 346 340 329 322 318 306 291 280 264 249 240 237 237 234 219 207 197 192 192 189 184 182 183 184 189 194 198 200 202 204
284 286 287 289 293 295 295 296 299 301 300 297 296 297 298 298 298 298 297 296 297 299 301 303 306 309 311 313 315 317 319 321 322 324 324 324 324 325 326 327 328 328 328 326 321 320 327 334 337 339 341 343 344 344 343 347 350 346 335 322 311 303 291 271 258 252 247 244 239 226 217 207 195 189 191 190 186 183 181 182 187 193 197 200 204 207
Height
5816 5814 5812 5811 5809 5808 5806 5804 5802 5801 5799 5796 5793 5791 5789 5786 5783 5782 5780 5777 5774 5772 5768 5761 5751 5748 5753 5746 5739 5738 5733 5730 5726 5720 5717 5713 5709 5705 5700 5696 5693 5689 5685 5680 5677 5673 5669 5665 5660 5655 5650 5644 5638 5630 5622 5614 5607 5601 5597 5597 5598 5599 5599 5599 5600 5601 5601 5600 5600 5601 5603 5605 5608 5610 5611 5613 5617 5619 5621 5624 5626 5628 5632 5635 5634 5636
5813 5810 5808 5807 5805 5803 5802 5799 5797 5796 5793 5791 5788 5786 5784 5782 5779 5776 5774 5771 5768 5765 5762 5758 5749 5743 5746 5743 5736 5731 5725 5722 5718 5712 5710 5706 5701 5697 5692 5689 5685 5680 5677 5672 5668 5664 5659 5654 5650 5645 5639 5632 5626 5617 5608 5600 5592 5586 5583 5582 5583 5584 5584 5584 5586 5587 5588 5588 5588 5589 5591 5593 5596 5600 5602 5604 5607 5610 5611 5614 5618 5619 5622 5626 5627 5629
5810 5807 5805 5803 5801 5798 5796 5794 5792 5790 5788 5786 5782 5780 5778 5776 5774 5771 5768 5766 5762 5758 5754 5751 5746 5738 5739 5738 5730 5724 5718 5713 5711 5707 5702 5698 5693 5688 5684 5680 5677 5672 5668 5663 5658 5653 5647 5641 5635 5631 5625 5619 5612 5603 5594 5586 5579 5574 5571 5569 5568 5569 5569 5569 5571 5572 5573 5575 5576 5577 5579 5582 5585 5589 5592 5594 5597 5600 5602 5604 5609 5611 5613 5617 5619 5621
5805 5803 5800 5798 5796 5793 5791 5789 5787 5785 5783 5780 5776 5773 5771 5768 5766 5764 5761 5759 5755 5751 5745 5742 5738 5729 5730 5733 5724 5715 5711 5707 5704 5700 5694 5689 5682 5677 5674 5671 5666 5662 5657 5651 5646 5640 5635 5629 5622 5615 5609 5603 5596 5588 5579 5571 5566 5562 5559 5556 5555 5555 5555 5555 5555 5557 5559 5561 5563 5565 5568 5571 5574 5578 5581 5584 5588 5592 5593 5595 5599 5602 5605 5608 5611 5614
5800 5797 5795 5792 5790 5788 5785 5783 5781 5779 5776 5773 5770 5766 5764 5762 5760 5756 5754 5751 5748 5744 5739 5735 5730 5719 5715 5722 5720 5710 5704 5700 5696 5689 5683 5677 5671 5667 5663 5659 5654 5649 5643 5638 5633 5628 5624 5619 5613 5606 5597 5588 5580 5571 5562 5556 5551 5547 5544 5542 5542 5542 5542 5542 5542 5543 5545 5547 5549 5552 5556 5560 5564 5568 5571 5574 5578 5582 5584 5586 5590 5593 5595 5599 5602 5606
5795 5792 5790 5787 5784 5782 5780 5777 5774 5772 5769 5766 5763 5760 5758 5756 5754 5751 5746 5744 5741 5737 5732 5727 5723 5717 5708 5707 5709 5706 5699 5693 5688 5682 5677 5671 5666 5662 5658 5653 5649 5643 5636 5630 5622 5615 5609 5603 5596 5589 5581 5572 5563 5554 5545 5540 5535 5530 5527 5525 5525 5527 5528 5528 5529 5530 5532 5534 5536 5539 5542 5547 5552 5556 5561 5564 5567 5570 5574 5577 5580 5582 5585 5589 5593 5597
5789 5786 5784 5781 5778 5775 5773 5771 5768 5765 5761 5758 5757 5754 5751 5750 5747 5745 5740 5735 5732 5728 5724 5719 5713 5712 5709 5703 5699 5697 5694 5688 5683 5678 5672 5667 5662 5658 5653 5648 5643 5637 5630 5623 5616 5608 5599 5591 5582 5571 5561 5552 5542 5535 5527 5522 5518 5514 5511 5509 5508 5510 5511 5512 5514 5516 5518 5521 5523 5526 5529 5533 5538 5544 5549 5553 5556 5559 5564 5568 5570 5573 5576 5581 5585 5587
5783 5780 5778 5775 5772 5769 5766 5764 5761 5759 5755 5752 5750 5747 5745 5743 5740 5737 5733 5729 5725 5719 5716 5714 5708 5703 5702 5698 5689 5686 5686 5680 5676 5671 5665 5661 5657 5650 5645 5640 5633 5625 5619 5612 5604 5596 5586 5577 5568 5558 5547 5537 5526 5518 5511 5505 5501 5499 5497 5494 5493 5494 5495 5496 5497 5500 5502 5505 5509 5511 5515 5519 5524 5530 5536 5541 5545 5550 5556 5559 5561 5564 5568 5571 5575 5578
5777 5775 5772 5769 5766 5762 5759 5757 5754 5752 5748 5745 5743 5740 5738 5736 5733 5730 5728 5724 5718 5711 5708 5706 5704 5699 5695 5691 5680 5675 5676 5672 5666 5661 5655 5652 5648 5642 5637 5630 5622 5614 5607 5600 5591 5582 5573 5563 5553 5543 5533 5524 5514 5506 5499 5492 5487 5486 5485 5482 5480 5480 5482 5482 5483 5484 5486 5490 5494 5497 5500 5506 5511 5517 5523 5528 5534 5540 5546 5550 5553 5556 5560 5563 5567 5570
5772 5769 5766 5763 5760 5756 5752 5750 5748 5745 5742 5739 5736 5733 5731 5729 5728 5724 5721 5717 5710 5705 5702 5698 5695 5690 5686 5686 5678 5667 5664 5661 5655 5649 5644 5641 5636 5630 5626 5618 5611 5604 5597 5590 5583 5573 5563 5553 5543 5532 5522 5513 5505 5496 5489 5482 5476 5474 5475 5473 5469 5469 5470 5470 5471 5472 5473 5476 5481 5484 5487 5492 5499 5503 5510 5516 5522 5527 5534 5540 5544 5547 5551 5555 5558 5562
5767 5764 5761 5758 5754 5750 5747 5743 5742 5739 5736 5733 5730 5727 5724 5721 5720 5718 5715 5712 5704 5698 5697 5693 5686 5679 5673 5673 5673 5666 5659 5652 5646 5641 5637 5633 5628 5622 5616 5608 5601 5594 5587 5579 5571 5563 5553 5544 5536 5524 5513 5504 5496 5488 5480 5474 5470 5466 5466 5465 5462 5462 5462 5461 5462 5463 5463 5464 5469 5473 5475 5479 5486 5491 5497 5504 5510 5515 5521 5527 5532 5536 5541 5545 5549 5553
5762 5759 5756 5753 5748 5745 5741 5738 5736 5732 5728 5725 5722 5719 5716 5712 5710 5709 5709 5706 5699 5691 5689 5687 5680 5672 5665 5658 5656 5656 5650 5643 5636 5631 5628 5624 5619 5615 5608 5600 5593 5586 5578 5567 5556 5547 5538 5530 5523 5513 5502 5493 5486 5479 5473 5468 5465 5462 5461 5460 5457 5456 5456 5455 5454 5455 5455 5455 5458 5463 5465 5467 5474 5480 5485 5492 5498 5503 5508 5515 5521 5525 5530 5535 5540 5544
5756 5753 5750 5747 5743 5739 5734 5731 5729 5726 5721 5717 5714 5711 5707 5704 5701 5701 5701 5698 5693 5686 5680 5680 5675 5669 5664 5655 5648 5644 5637 5631 5627 5621 5618 5614 5607 5604 5598 5591 5585 5577 5568 5557 5544 5534 5524 5515 5507 5500 5491 5483 5477 5471 5466 5463 5460 5458 5457 5456 5453 5451 5451 5450 5449 5448 5447 5447 5448 5452 5455 5456 5461 5469 5474 5480 5486 5491 5497 5504 5510 5515 5521 5526 5532 5536
5750 5747 5744 5740 5736 5733 5729 5725 5722 5718 5715 5711 5708 5704 5701 5697 5693 5693 5693 5689 5687 5684 5676 5671 5666 5661 5660 5654 5648 5642 5631 5622 5619 5614 5609 5605 5598 5593 5588 5581 5575 5569 5559 5548 5536 5524 5513 5504 5496 5490 5483 5476 5470 5466 5462 5458 5455 5453 5452 5451 5449 5446 5445 5443 5442 5441 5439 5438 5438 5441 5445 5446 5449 5457 5462 5468 5474 5479 5486 5493 5500 5506 5512 5518 5523 5527
5744 5742 5739 5733 5729 5726 5723 5719 5715 5711 5708 5704 5702 5698 5696 5693 5687 5685 5684 5679 5676 5678 5676 5670 5660 5651 5650 5648 5644 5639 5629 5618 5612 5609 5603 5598 5592 5585 5579 5573 5567 5560 5550 5539 5529 5517 5505 5496 5490 5485 5478 5471 5466 5461 5458 5454 5450 5448 5447 5446 5444 5442 5440 5437 5435 5433 5431 5429 5428 5430 5434 5436 5439 5445 5451 5456 5461 5467 5474 5482 5489 5497 5503 5508 5514 5519
5738 5736 5733 5728 5723 5719 5716 5712 5708 5705 5701 5697 5694 5691 5689 5687 5682 5679 5677 5671 5666 5666 5670 5670 5660 5649 5640 5637 5638 5632 5624 5617 5609 5605 5600 5591 5587 5580 5572 5565 5559 5551 5542 5531 5522 5511 5498 5489 5484 5480 5474 5467 5462 5457 5454 5450 5445 5442 5441 5440 5439 5436 5434 5432 5429 5427 5424 5421 5419 5420 5423 5426 5428 5434 5440 5445 5450 5456 5463 5471 5478 5486 5493 5499 5505 5510
5731 5729 5727 5723 5718 5714 5710 5705 5702 5699 5694 5691 5687 5684 5682 5680 5676 5672 5668 5664 5659 5654 5659 5662 5657 5650 5637 5626 5627 5624 5615 5612 5606 5600 5595 5587 5581 5577 5569 5562 5554 5546 5537 5525 5515 5504 5494 5484 5478 5474 5469 5462 5457 5453 5450 5447 5442 5438 5435 5433 5432 5430 5428 5425 5423 5421 5418 5414 5411 5410 5412 5415 5418 5422 5429 5435 5440 5445 5452 5460 5467 5475 5483 5490 5496 5501
5723 5720 5719 5716 5712 5709 5705 5699 5695 5693 5689 5684 5681 5678 5675 5672 5669 5664 5658 5656 5654 5647 5650 5654 5648 5646 5638 5622 5617 5616 5609 5607 5604 5597 5591 5584 5577 5572 5566 5559 5550 5540 5530 5519 5508 5498 5489 5480 5474 5469 5464 5459 5454 5449 5445 5442 5438 5435 5431 5427 5425 5423 5421 5418 5415 5413 5411 5408 5404 5402 5402 5404 5407 5411 5417 5424 5430 5436 5442 5449 5457 5465 5473 5480 5486 5492
5717 5713 5711 5709 5706 5703 5700 5693 5688 5686 5683 5678 5673 5671 5669 5665 5661 5657 5648 5645 5645 5639 5638 5645 5642 5638 5635 5621 5609 5605 5601 5597 5595 5590 5584 5578 5571 5564 5558 5550 5540 5529 5519 5509 5498 5488 5480 5473 5468 5463 5458 5454 5450 5445 5440 5436 5432 5429 5426 5422 5419 5416 5413 5410 5407 5405 5404 5401 5397 5395 5393 5394 5397 5401 5406 5413 5420 5426 5433 5439 5446 5454 5462 5469 5475 5482
5712 5707 5703 5701 5700 5697 5694 5689 5683 5679 5675 5671 5666 5664 5663 5660 5655 5651 5643 5635 5633 5629 5625 5629 5632 5629 5627 5618 5605 5597 5592 5587 5582 5579 5574 5568 5561 5553 5546 5538 5528 5517 5507 5498 5487 5477 5470 5464 5460 5457 5452 5447 5444 5440 5436 5431 5427 5424 5420 5417 5414 5410 5407 5403 5400 5397 5396 5394 5391 5388 5386 5386 5388 5392 5397 5403 5410 5417 5424 5430 5437 5445 5452 5458 5465 5473
5706 5701 5696 5693 5693 5691 5687 5684 5681 5674 5669 5664 5659 5655 5655 5653 5648 5643 5640 5635 5627 5620 5615 5614 5617 5621 5617 5607 5597 5590 5583 5578 5572 5567 5562 5557 5551 5544 5537 5529 5519 5507 5497 5488 5478 5468 5462 5456 5452 5450 5446 5441 5437 5434 5430 5426 5422 5418 5414 5410 5406 5404 5401 5397 5394 5390 5389 5387 5384 5382 5380 5379 5380 5383 5388 5394 5400 5407 5414 5421 5427 5435 5442 5449 5456 5464
5699 5696 5691 5687 5685 5684 5680 5677 5676 5672 5666 5659 5654 5650 5647 5645 5641 5632 5630 5632 5625 5613 5606 5601 5602 5612 5611 5598 5590 5584 5576 5570 5565 5557 5552 5548 5544 5537 5530 5522 5511 5500 5489 5479 5471 5462 5455 5449 5444 5441 5439 5435 5431 5427 5423 5420 5415 5411 5407 5403 5399 5396 5393 5391 5388 5384 5382 5380 5378 5375 5374 5373 5373 5376 5379 5384 5391 5398 5406 5412 5419 5427 5434 5441 5448 5455
5693 5689 5686 5682 5678 5676 5673 5671 5669 5666 5662 5656 5650 5646 5642 5639 5635 5627 5622 5624 5622 5612 5601 5591 5590 5598 5598 5588 5583 5577 5571 5567 5560 5552 5546 5542 5537 5530 5522 5513 5503 5494 5484 5473 5466 5459 5451 5443 5436 5432 5430 5428 5424 5420 5416 5412 5409 5404 5400 5396 5392 5389 5385 5383 5381 5378 5375 5373 5371 5369 5367 5366 5367 5368 5371 5375 5382 5389 5396 5403 5410 5419 5427 5434 5440 5447
5686 5682 5679 5677 5672 5669 5667 5664 5662 5660 5656 5651 5646 5640 5637 5632 5625 5619 5616 5614 5614 5612 5600 5587 5586 5589 5584 5577 5572 5566 5562 5561 5554 5546 5539 5532 5526 5520 5513 5506 5496 5486 5477 5468 5460 5455 5447 5440 5433 5426 5422 5420 5417 5413 5408 5404 5401 5397 5393 5388 5385 5381 5378 5375 5373 5370 5368 5366 5364 5362 5360 5359 5360 5361 5364 5368 5373 5380 5387 5394 5402 5411 5419 5426 5433 5440
5679 5675 5672 5671 5667 5663 5661 5658 5655 5653 5650 5646 5642 5635 5630 5626 5615 5608 5607 5604 5603 5605 5598 5584 5582 5586 5580 5571 5565 5556 5552 5552 5547 5539 5531 5522 5515 5510 5505 5499 5489 5479 5470 5461 5453 5448 5443 5436 5429 5422 5417 5412 5408 5405 5400 5396 5392 5389 5385 5380 5376 5373 5370 5367 5365 5363 5360 5358 5357 5355 5354 5353 5353 5354 5356 5361 5366 5371 5377 5385 5393 5402 5411 5417 5425 5432
5672 5668 5665 5663 5660 5657 5655 5651 5647 5645 5641 5638 5637 5630 5624 5620 5610 5600 5598 5597 5593 5593 5592 5583 5575 5576 5577 5570 5562 5553 5546 5543 5540 5534 5527 5517 5509 5505 5499 5492 5482 5472 5461 5451 5442 5437 5433 5429 5423 5417 5411 5405 5400 5395 5391 5387 5383 5380 5377 5372 5368 5365 5362 5358 5356 5354 5353 5352 5350 5348 5347 5346 5345 5345 5348 5352 5358 5364 5369 5376 5385 5394 5402 5409 5416 5425
5664 5662 5658 5655 5652 5649 5648 5645 5641 5638 5634 5631 5629 5625 5619 5612 5604 5595 5589 5588 5585 5582 5585 5582 5568 5562 5567 5564 5556 5549 5541 5536 5532 5527 5520 5511 5504 5500 5493 5484 5474 5464 5453 5442 5434 5428 5424 5421 5417 5411 5405 5398 5392 5386 5381 5377 5374 5371 5368 5364 5359 5356 5353 5350 5347 5345 5344 5344 5343 5342 5340 5338 5337 5337 5338 5343 5349 5356 5362 5369 5377 5385 5393 5401 5408 5417
5656 5654 5652 5648 5645 5642 5640 5637 5635 5631 5629 5626 5623 5620 5615 5606 5598 5591 5584 5580 5577 5572 5576 5577 5565 5557 5557 5554 5549 5542 5534 5528 5524 5519 5513 5504 5496 5491 5484 5475 5466 5456 5446 5437 5430 5424 5418 5413 5410 5405 5398 5391 5384 5378 5372 5368 5364 5361 5358 5354 5351 5347 5344 5341 5339 5337 5336 5335 5335 5334 5333 5331 5330 5329 5330 5334 5340 5348 5356 5363 5370 5378 5385 5393 5401 5409
5647 5646 5644 5641 5638 5635 5631 5630 5628 5624 5622 5620 5617 5615 5611 5603 5594 5588 5581 5574 5569 5566 5565 5564 5559 5555 5551 5546 5543 5537 5527 5519 5514 5509 5505 5497 5488 5483 5476 5467 5458 5449 5439 5431 5424 5418 5411 5405 5400 5395 5389 5382 5375 5369 5364 5359 5354 5351 5347 5344 5340 5337 5334 5331 5330 5328 5327 5326 5326 5326 5324 5323 5322 5321 5322 5325 5332 5340 5349 5356 5364 5371 5379 5386 5394 5401
5640 5638 5636 5633 5631 5629 5625 5622 5620 5617 5615 5612 5610 5608 5605 5599 5592 5585 5576 5568 5563 5561 5559 5552 5548 5549 5545 5539 5537 5532 5522 5513 5505 5500 5497 5490 5482 5475 5467 5459 5451 5442 5433 5425 5418 5412 5405 5397 5390 5384 5378 5372 5365 5359 5354 5350 5345 5340 5337 5333 5329 5326 5323 5321 5320 5318 5317 5317 5316 5315 5315 5315 5314 5313 5313 5317 5323 5331 5340 5348 5356 5364 5372 5379 5387 5394
5633 5631 5629 5625 5623 5622 5619 5615 5613 5611 5606 5603 5603 5601 5596 5591 5587 5581 5572 5563 5557 5557 5554 5547 5541 5541 5539 5534 5531 5526 5517 5509 5500 5492 5486 5481 5475 5467 5460 5453 5444 5434 5425 5418 5412 5406 5398 5390 5383 5376 5370 5363 5355 5348 5343 5339 5335 5330 5326 5322 5318 5315 5312 5310 5310 5308 5307 5306 5305 5305 5306 5306 5305 5304 5305 5309 5315 5322 5330 5338 5347 5356 5365 5372 5379 5387
5626 5623 5622 5618 5615 5615 5613 5608 5606 5604 5598 5596 5595 5592 5588 5584 5579 5575 5568 5558 5552 5551 5549 5543 5538 5536 5533 5530 5527 5523 5516 5508 5500 5489 5478 5472 5469 5462 5452 5445 5436 5425 5416 5408 5402 5396 5389 5382 5374 5367 5362 5354 5346 5339 5333 5327 5324 5319 5315 5310 5306 5303 5301 5299 5298 5297 5295 5294 5293 5294 5295 5297 5297 5296 5297 5301 5307 5314 5321 5328 5338 5348 5357 5364 5372 5380
5619 5615 5614 5610 5606 5606 5605 5601 5599 5596 5591 5589 5587 5583 5581 5578 5572 5569 5564 5554 5546 5544 5541 5536 5533 5531 5528 5525 5522 5520 5516 5508 5499 5488 5473 5463 5459 5454 5445 5438 5429 5420 5409 5400 5393 5386 5380 5373 5365 5357 5351 5345 5337 5329 5322 5316 5311 5307 5303 5298 5294 5290 5288 5287 5286 5284 5283 5281 5281 5282 5285 5287 5288 5288 5290 5293 5299 5307 5313 5320 5330 5339 5348 5357 5365 5373
5612 5608 5606 5603 5599 5597 5597 5593 5590 5587 5585 5581 5577 5574 5573 5572 5567 5563 5559 5551 5542 5537 5533 5529 5525 5522 5520 5518 5514 5511 5509 5502 5493 5484 5472 5458 5449 5444 5439 5432 5424 5415 5405 5395 5387 5380 5374 5368 5360 5352 5345 5337 5327 5319 5311 5304 5298 5294 5290 5286 5281 5277 5274 5273 5272 5271 5270 5269 5270 5272 5275 5278 5280 5281 5282 5286 5292 5300 5307 5315 5323 5332 5341 5349 5358 5368
5603 5601 5598 5595 5592 5590 5589 5586 5580 5578 5578 5573 5567 5566 5565 5561 5560 5559 5556 5549 5539 5532 5529 5525 5521 5516 5512 5510 5505 5501 5500 5496 5489 5481 5470 5458 5446 5437 5431 5424 5417 5410 5403 5394 5385 5376 5369 5364 5356 5347 5340 5332 5320 5310 5302 5293 5286 5282 5279 5275 5271 5266 5262 5261 5260 5258 5258 5258 5260 5263 5266 5269 5271 5273 5275 5279 5286 5294 5302 5310 5318 5326 5335 5343 5352 5363
5595 5593 5590 5587 5585 5582 5581 5579 5572 5567 5568 5564 5560 5559 5557 5552 5550 5551 5551 5547 5537 5528 5525 5522 5518 5514 5509 5505 5500 5495 5493 5492 5487 5479 5469 5459 5448 5436 5426 5417 5409 5402 5397 5391 5382 5372 5362 5357 5349 5339 5332 5324 5313 5303 5293 5284 5277 5272 5270 5267 5263 5258 5254 5251 5250 5248 5248 5249 5251 5255 5258 5261 5263 5265 5269 5274 5281 5290 5298 5306 5313 5321 5330 5338 5348 5357
5588 5585 5582 5578 5577 5574 5571 5571 5567 5560 5558 5555 5551 5551 5550 5546 5542 5540 5541 5540 5532 5524 5521 5517 5513 5510 5505 5500 5495 5489 5486 5486 5484 5478 5470 5461 5451 5440 5429 5418 5407 5398 5391 5386 5380 5370 5359 5351 5344 5335 5326 5318 5309 5298 5288 5279 5272 5268 5265 5261 5256 5252 5247 5243 5241 5239 5239 5241 5245 5248 5252 5254 5256 5259 5263 5269 5277 5286 5294 5302 5309 5317 5326 5334 5343 5352
5580 5577 5573 5569 5568 5566 5562 5561 5560 5555 5551 5546 5541 5541 5542 5539 5536 5533 5532 5532 5526 5518 5514 5511 5507 5504 5499 5495 5490 5483 5479 5478 5478 5473 5465 5458 5450 5439 5430 5421 5409 5399 5390 5383 5377 5370 5360 5350 5342 5333 5323 5314 5306 5296 5286 5278 5271 5266 5262 5257 5251 5246 5241 5236 5234 5233 5234 5236 5240 5243 5246 5248 5250 5253 5258 5265 5273 5281 5290 5298 5306 5314 5322 5330 5339 5347
5570 5567 5563 5560 5559 5558 5554 5553 5552 5548 5544 5538 5531 5531 5533 5531 5528 5525 5524 5523 5520 5514 5509 5505 5502 5499 5494 5488 5484 5478 5471 5467 5467 5464 5457 5449 5442 5432 5422 5414 5404 5395 5387 5380 5373 5366 5357 5347 5338 5330 5321 5312 5305 5296 5287 5278 5271 5265 5260 5254 5248 5243 5238 5234 5231 5231 5232 5234 5237 5239 5241 5243 5245 5249 5255 5262 5270 5277 5286 5295 5304 5312 5320 5327 5335 5343
5560 5558 5554 5552 5551 5549 5545 5544 5544 5541 5539 5532 5524 5521 5522 5522 5521 5517 5513 5513 5511 5507 5504 5500 5495 5493 5489 5482 5478 5474 5466 5458 5454 5452 5447 5439 5433 5425 5415 5406 5396 5387 5380 5375 5369 5363 5355 5345 5334 5326 5317 5308 5302 5295 5287 5279 5271 5265 5259 5253 5247 5242 5237 5234 5233 5232 5232 5233 5234 5236 5237 5239 5242 5246 5253 5260 5268 5276 5284 5293 5302 5310 5317 5324 5332 5339
5551 5549 5546 5545 5543 5541 5537 5534 5534 5536 5535 5527 5519 5516 5514 5513 5512 5509 5505 5504 5502 5499 5498 5494 5489 5486 5482 5477 5472 5469 5464 5456 5448 5444 5439 5432 5426 5420 5412 5404 5395 5385 5376 5368 5361 5355 5350 5342 5332 5322 5313 5304 5297 5292 5286 5279 5271 5265 5259 5253 5248 5243 5239 5236 5234 5233 5233 5233 5233 5234 5235 5237 5240 5245 5252 5260 5267 5275 5283 5292 5300 5308 5315 5322 5329 5336
5543 5540 5539 5539 5536 5534 5531 5526 5523 5528 5530 5523 5514 5512 5510 5506 5505 5503 5498 5496 5495 5493 5491 5488 5484 5480 5477 5473 5469 5464 5461 5456 5448 5441 5436 5428 5421 5415 5408 5401 5394 5387 5379 5371 5362 5354 5346 5339 5331 5322 5313 5305 5297 5289 5284 5278 5271 5265 5259 5254 5249 5244 5240 5237 5235 5234 5233 5232 5232 5232 5233 5236 5240 5246 5253 5259 5266 5273 5281 5289 5298 5305 5312 5319 5326 5333
5536 5532 5531 5532 5529 5526 5525 5521 5515 5517 5521 5518 5511 5508 5505 5501 5500 5497 5493 5489 5488 5487 5484 5481 5477 5474 5472 5470 5466 5460 5456 5452 5446 5439 5432 5425 5417 5410 5403 5396 5389 5382 5375 5369 5362 5354 5346 5339 5331 5320 5311 5304 5297 5290 5283 5277 5270 5264 5259 5254 5249 5245 5241 5238 5235 5234 5233 5232 5232 5231 5233 5236 5241 5247 5253 5258 5264 5271 5279 5286 5295 5302 5310 5317 5323 5330
5529 5526 5524 5524 5523 5520 5517 5515 5510 5508 5510 5509 5506 5502 5498 5495 5493 5490 5487 5485 5483 5481 5478 5474 5471 5468 5467 5465 5461 5456 5451 5447 5442 5435 5429 5422 5415 5407 5401 5394 5386 5379 5373 5366 5359 5352 5344 5338 5331 5321 5311 5304 5297 5290 5283 5276 5269 5263 5258 5253 5249 5244 5241 5237 5235 5233 5232 5231 5231 5232 5234 5237 5242 5248 5254 5259 5265 5271 5278 5285 5292 5300 5307 5314 5321 5328
5521 5518 5516 5517 5516 5513 5511 5508 5505 5502 5500 5499 5497 5495 5491 5487 5484 5481 5480 5479 5478 5475 5472 5468 5465 5463 5461 5459 5455 5449 5444 5441 5437 5430 5424 5418 5411 5404 5397 5391 5384 5377 5370 5364 5358 5350 5342 5336 5328 5320 5312 5304 5296 5289 5283 5275 5268 5262 5257 5253 5248 5244 5240 5237 5234 5233 5232 5231 5232 5233 5236 5240 5244 5249 5254 5259 5265 5271 5277 5283 5291 5297 5305 5312 5319 5325
5512 5509 5508 5510 5508 5505 5504 5503 5500 5496 5492 5489 5488 5488 5484 5480 5476 5474 5473 5472 5470 5468 5465 5462 5460 5457 5454 5452 5449 5443 5437 5434 5431 5425 5419 5413 5407 5400 5393 5387 5381 5374 5368 5362 5356 5348 5341 5334 5327 5319 5311 5304 5297 5290 5283 5276 5269 5263 5258 5253 5249 5245 5241 5238 5236 5235 5234 5233 5234 5236 5239 5243 5246 5250 5254 5259 5264 5269 5274 5281 5288 5295 5302 5309 5316 5323
5505 5500 5499 5502 5501 5498 5497 5497 5494 5491 5486 5480 5478 5478 5475 5472 5470 5468 5467 5466 5463 5461 5458 5456 5453 5451 5448 5445 5441 5437 5432 5428 5424 5419 5413 5408 5402 5397 5390 5384 5378 5372 5365 5359 5353 5346 5340 5334 5326 5318 5311 5304 5298 5291 5284 5278 5271 5265 5259 5255 5251 5247 5244 5241 5239 5238 5238 5238 5239 5240 5243 5246 5248 5251 5255 5259 5263 5267 5273 5279 5287 5293 5299 5306 5313 5319
5498 5495 5492 5492 5493 5492 5491 5490 5488 5486 5481 5475 5471 5469 5467 5464 5463 5462 5460 5459 5457 5454 5452 5449 5446 5444 5441 5438 5435 5431 5426 5421 5417 5413 5408 5402 5397 5392 5386 5381 5375 5369 5362 5356 5350 5344 5338 5332 5325 5317 5310 5304 5297 5291 5285 5279 5273 5267 5262 5257 5253 5250 5248 5245 5243 5242 5242 5242 5243 5244 5245 5246 5249 5252 5256 5260 5263 5267 5272 5279 5286 5292 5298 5304 5310 5316
5491 5490 5486 5484 5486 5486 5484 5482 5481 5480 5477 5471 5466 5464 5462 5459 5458 5456 5454 5452 5450 5447 5445 5442 5440 5437 5434 5431 5428 5425 5420 5415 5410 5406 5401 5396 5392 5387 5382 5377 5371 5365 5359 5353 5348 5342 5336 5330 5324 5316 5309 5303 5296 5290 5285 5279 5273 5268 5263 5259 5255 5252 5250 5248 5246 5244 5244 5244 5245 5246 5246 5247 5249 5252 5256 5260 5263 5267 5272 5278 5284 5290 5296 5302 5307 5312
5484 5484 5480 5478 5481 5482 5477 5474 5473 5472 5471 5467 5462 5459 5457 5455 5453 5451 5449 5446 5443 5441 5439 5436 5433 5430 5426 5423 5421 5418 5414 5409 5405 5400 5395 5390 5386 5381 5377 5372 5367 5361 5355 5350 5345 5340 5335 5329 5323 5316 5310 5303 5297 5290 5284 5278 5272 5267 5263 5259 5256 5253 5251 5249 5247 5246 5246 5246 5246 5247 5248 5249 5250 5253 5256 5259 5263 5267 5272 5277 5283 5288 5294 5299 5304 5309
5476 5477 5474 5473 5476 5477 5472 5468 5466 5465 5463 5460 5457 5455 5453 5450 5448 5445 5443 5440 5437 5435 5433 5430 5428 5424 5420 5416 5413 5411 5408 5404 5399 5395 5390 5385 5381 5376 5371 5367 5362 5357 5352 5346 5341 5337 5333 5328 5322 5316 5310 5304 5297 5291 5284 5278 5272 5267 5263 5259 5257 5254 5251 5250 5248 5247 5247 5247 5248 5249 5250 5251 5252 5254 5256 5259 5263 5266 5271 5276 5281 5286 5291 5296 5301 5305